Regional Weather Roundup
Issued by NWS

Home | Current Version | Previous Version | Text Only | Print | Product List | Glossary On
Versions: 1 2 3 4 5 6 7 8 9 10 11 12 13 14 15 16 17 18 19 20 21 22 23 24 25 26 27 28 29 30 31 32 33 34 35 36 37 38 39 40 41 42 43 44 45 46 47 48 49 50
000
ASUS44 KFWD 161715
RWRTX
NORTH TEXAS HOURLY WEATHER ROUNDUP
NATIONAL WEATHER SERVICE FORT WORTH TX
1100 AM CST SAT DEC 16 2017

NOTE: "FAIR" INDICATES FEW OR NO CLOUDS BELOW 12,000 FEET WITH NO
SIGNIFICANT WEATHER AND/OR OBSTRUCTIONS TO VISIBILITY.

TXZ118-119-161800-
DALLAS/FORT WORTH METROPLEX

CITY           SKY/WX    TMP DP  RH WIND       PRES   REMARKS
DFW AIRPORT    PTSUNNY   58  31  35 S7        30.10F
DALLAS LOVE    PTSUNNY   56  33  42 SE5       30.12F
FTW MEACHAM    SUNNY     55  32  41 S9        30.11F
DAL-EXECUTIVE  SUNNY     57  34  41 S9        30.11F
FTW-ALLIANCE   PTSUNNY   54  31  41 S7        30.11R
FTW-NAS-JRB    PTSUNNY   55  30  38 S7        30.12F
FTW-SPINKS     SUNNY     57  30  35 S7        30.13F
ARLINGTON      SUNNY     54  33  45 SE7       30.12F
GRAND PRAIRIE  SUNNY     55  30  38 S6        30.13F
ADDISON        SUNNY     55  30  38 S6        30.13S
MESQUITE       SUNNY     54  32  43 S6        30.15F
LANCASTER      SUNNY     55  32  42 S6        30.14F
$$

TXZ091>094-102>105-117-120-121-131>134-161800-
NORTH CENTRAL TEXAS

CITY           SKY/WX    TMP DP  RH WIND       PRES   REMARKS
SHRMAN/DENISON SUNNY     56  29  35 S14       30.12S
GAINESVILLE    SUNNY     53  29  38 S9        30.11S
BOWIE          SUNNY     54  30  39 S10       30.07F
BRIDGEPORT     MOSUNNY   58  30  34 SW7       30.10F
DECATUR        SUNNY     54  29  37 S10       30.08F
DENTON         SUNNY     53  32  44 S8        30.11S
MCKINNEY       MOSUNNY   55  32  41 S8        30.13S
BONHAM         SUNNY     53  31  42 S14       30.14S
GREENVILLE     SUNNY     59  34  38 S8        30.16S
ROCKWALL       SUNNY     54  33  43 S9        30.15S
TERRELL        SUNNY     57  32  38 S14       30.16S
WAXAHACHIE     SUNNY     58  34  41 S8        30.13F
CLEBURNE       MOSUNNY   52  32  46 S9        30.13S
GRANBURY       PTSUNNY   57  32  38 S12       30.12S
$$

TXZ083>090-098>101-113>116-127>130-139>142-154-155-161800-
WESTERN NORTH TEXAS

CITY           SKY/WX    TMP DP  RH WIND       PRES   REMARKS
WICHITA FALLS  SUNNY     53  28  38 S17       30.03F
WF-KICKAPOO    SUNNY     53  29  40 S12       30.06F
VERNON         SUNNY     52  21  29 SW15G22   30.02S
ABILENE        MOSUNNY   52  28  39 S17G25    30.04F
ABILENE-DYESS  CLOUDY    53  28  39 S17G24    30.03F
GRAHAM           N/A     55  30  38 S8        30.05F
BRECKENRIDGE   CLOUDY    52  27  37 S9        30.04F
CISCO          MOSUNNY   46  30  53 S6        30.05F
EASTLAND       PTSUNNY   48  30  49 S7        30.07F
RANGER         PTSUNNY   47  31  54 SW5       30.08S
MINERAL WELLS  MOSUNNY   52  29  41 S8        30.08F
STEPHENVILLE   MOSUNNY   53  31  43 S7        30.11F
COMANCHE       CLOUDY    58  33  38 S3        30.09F
BROWNWOOD      PTSUNNY   52  30  43 S9        30.10S
COLEMAN        PTSUNNY   50  30  46 SW8       30.10R
$$

TXZ143>147-156>162-174-175-161800-
CENTRAL TEXAS

CITY           SKY/WX    TMP DP  RH WIND       PRES   REMARKS
WACO           CLOUDY    51  35  54 S8        30.14F
WACO-TSTC      CLOUDY    50  36  57 SE3       30.16F
WACO-MCGREGOR  CLOUDY    51  37  58 S7        30.15F
HILLSBORO      SUNNY     56  35  45 S7        30.13F
CORSICANA      SUNNY     54  35  48 S10       30.17F
MEXIA          PTSUNNY   51  35  54 S6        30.17S
HEARNE         CLOUDY    48  38  67 SE6       30.19F
CAMERON        CLOUDY    48  40  72 E3        30.17F
TEMPLE         CLOUDY    49  36  61 S6        30.16F
KILLEEN        CLOUDY    47  36  66 SE7       30.12S
KILLEEN-SKYLRK CLOUDY    49  37  63 SE5       30.14S
FORT HOOD      CLOUDY    47  36  67 SE6       30.10S
GATESVILLE     CLOUDY    50  36  57 CALM      30.14F
HAMILTON       PTSUNNY   54  33  44 S8        30.11F
LAMPASAS       CLOUDY    46  35  64 CALM      30.11S
$$

TXZ095>097-106>112-122>126-135>138-148>153-164>167-161800-
EAST TEXAS

CITY           SKY/WX    TMP DP  RH WIND       PRES   REMARKS
PARIS          SUNNY     55  32  41 S8        30.15F
SULPHUR SPRNGS CLOUDY    57  31  37 S10       30.18S
MOUNT PLEASANT SUNNY     55  32  42 SW8       30.19F
GILMER         SUNNY     54  32  43 S10       30.19F
MINEOLA        SUNNY     55  32  41 S7        30.18S
TYLER          SUNNY     57  31  37 S10       30.18F
LONGVIEW       SUNNY     56  36  47 SW10      30.20S
MARSHALL       SUNNY     53  35  51 S7        30.24S
ATHENS         SUNNY     54  30  40 S9        30.17S
PALESTINE      CLOUDY    52  36  55 SE3       30.21F
JACKSONVILLE   CLOUDY    51  37  57 S5        30.21S
HENDERSON      SUNNY     53  34  48 S6        30.22S
CENTER         MOSUNNY   47  34  61 S7        30.25S
NACOGDOCHES    CLOUDY    45  38  76 CALM      30.23F
LUFKIN         CLOUDY    47  38  71 SE6       30.23S
$$

SUPPLEMENTAL OBSERVATIONS (NWS FORT WORTH AREA)

CITY           SKY/WX    TMP DP  RH WIND       PRES   REMARKS
DENISON DAM      N/A     55  27  33 S6          N/A
CADDO GRASSLND   N/A     54  32  43 S8          N/A
PAT MAYSE LAKE   N/A     54  32  43 S10         N/A
GREENVILLE       N/A     55  32  41 S8          N/A
CEDAR HILL       N/A     59  32  36 S6          N/A
LBJ GRASSLAND    N/A     55  28  35 S10         N/A
POSSUM KINGDOM   N/A     55  32  41 S10         N/A
GRANBURY         N/A     57  32  38 S12         N/A
COMANCHE         N/A     57  28  33 S14         N/A
MCGREGOR         N/A     52  34  50 S9          N/A
TEMPLE           N/A     48  37  66 SE3         N/A
LAKE LIMESTONE   N/A     46  36  66 SE7         N/A
ATHENS           N/A     59  32  36 S9          N/A
$$

SUPPLEMENTAL OBSERVATIONS (NWS NORMAN AREA)

CITY           SKY/WX    TMP DP  RH WIND       PRES   REMARKS
GOODLETT         N/A     51  27  39 S18       29.97S
ODELL            N/A     50  26  39 S20       30.01S
CROWELL          N/A     52  26  36 S17       30.01S
KNOX CITY        N/A     54  24  30 S16       30.01F
SEYMOUR          N/A     55  26  31 S17G24    30.03F
$$

SUPPLEMENTAL OBSERVATIONS (NWS SAN ANGELO AREA)

CITY           SKY/WX    TMP DP  RH WIND       PRES   REMARKS
WEINERT          N/A     55  25  31 S20       30.01F
HASKELL          N/A     55  23  28 S20       30.01F
THROCKMORTON     N/A     55  30  37 S13       30.04S
STAMFORD         N/A     56  26  31 S21       30.03F
CLYDE            N/A     53  27  37 S20       30.06R
HAMBY            N/A     52  28  40 S17G23      N/A
IVIE RESERVOIR   N/A     48  32  53 SE3         N/A
COLORADO BEND    N/A     46  32  57 S5          N/A
$$

SUPPLEMENTAL OBSERVATIONS (NWS SHREVEPORT AREA)

CITY           SKY/WX    TMP DP  RH WIND       PRES   REMARKS
CLARKSVILLE      N/A     54  32  43 S7          N/A
TEXARKANA        N/A     54  32  43 S7          N/A
LINDEN           N/A     57  32  38 S5          N/A
CADDO LAKE       N/A     57  34  41 SE5         N/A
GILMER           N/A     57  32  38 S8          N/A
HENDERSON        N/A     54  32  43 S8          N/A
LUFKIN           N/A     48  37  66 MISG        N/A
N SABINE NF      N/A     48  34  57 MISG        N/A
S SABINE NF      N/A     48  39  71 E2          N/A
$$

SUPPLEMENTAL OBSERVATIONS ARE A COLLECTION OF AUTOMATED INSTRUMENTS
THAT ARE MAINTAINED BY A VARIETY OF FEDERAL AND STATE AGENCIES.
CERTAIN ELEMENTS...SUCH AS HUMIDITY VALUES AND SUSTAINED WIND
SPEEDS...MAY BE APPROXIMATED.





USA.gov is the U.S. government's official web portal to all federal, state and local government web resources and services.